RH
82 92 87 67 73 56 44 48 71 42 42 46 57 45 56 71 54 51 56 61 66 68 74 74 69 71 70 74 82 96 95 87 84 83 77 72 76 69 63 56 57 52 56 58 50 51 46 50 48
80 97 87 69 84 89 80 65 45 36 83 48 56 38 41 40 46 46 52 52 55 62 62 59 56 62 69 71 97 94 95 84 79 77 83 71 58 58 64 58 50 51 58 64 59 65 62 77 71
70 66 63 49 72 75 86 51 40 41 45 38 44 37 42 41 45 43 51 53 52 62 67 61 60 61 61 67 90 91 92 84 78 68 64 54 56 68 58 57 63 63 64 64 70 72 75 59 57
99 46 44 48 50 53 63 50 44 75 38 42 29 41 42 43 44 45 51 44 64 74 76 88 86 80 72 60 76 74 80 84 76 67 57 56 59 56 52 60 70 82 83 76 66 68 63 56 56
46 36 39 54 28 34 61 70 44 86 42 38 29 38 42 44 52 46 47 56 80 80 82 90 85 68 59 61 66 74 69 69 62 60 59 55 53 61 56 63 70 75 75 74 72 66 64 56 54
54 92 72 22 32 48 66 69 37 38 52 42 32 33 40 42 52 53 54 60 74 74 72 87 77 76 66 68 66 76 72 57 55 50 55 54 45 51 57 78 76 76 74 79 76 66 59 56 55
97 98 79 23 17 51 77 42 33 38 39 29 33 36 33 39 48 54 63 68 72 64 63 90 91 85 77 74 76 84 72 59 57 65 63 50 51 59 56 64 68 72 81 81 70 65 60 61 55
98 100 54 17 18 23 58 82 22 34 51 45 34 37 30 34 38 49 59 61 68 59 60 62 78 90 78 77 80 76 64 60 61 66 68 68 73 76 74 62 72 71 70 76 80 76 70 63 66
57 97 22 12 54 25 21 29 35 46 38 33 31 36 32 28 31 42 50 55 57 59 60 62 51 76 68 48 46 46 49 54 60 69 72 72 82 78 77 69 65 64 65 72 76 83 81 79 78
97 14 33 9 52 57 31 39 47 20 49 43 33 36 34 28 30 34 50 52 57 60 62 56 58 52 47 51 56 55 58 62 66 71 69 69 83 77 80 76 79 78 74 69 72 84 97 90 91
23 13 18 23 14 20 25 73 60 23 35 47 47 36 37 34 29 30 37 50 50 58 62 56 56 57 59 59 69 69 65 66 68 68 71 70 75 84 83 85 81 83 81 75 90 93 87 93 95
68 34 27 76 93 76 14 8 12 15 21 28 36 40 46 40 33 28 35 35 45 51 50 52 57 62 71 70 72 75 78 77 69 70 77 71 81 79 77 73 78 84 91 90 97 90 82 92 95
89 98 45 48 32 30 29 9 11 6 6 14 18 21 21 25 47 40 33 30 30 29 35 40 49 51 56 58 63 74 76 83 69 67 72 77 76 71 63 58 74 78 80 69 90 86 76 83 87
69 69 50 59 47 31 78 19 33 17 10 7 5 6 9 12 14 21 48 41 34 34 35 36 29 33 41 48 54 66 68 73 73 71 66 76 71 62 49 58 62 80 65 62 78 80 80 83 89
96 75 79 44 66 48 33 25 27 23 21 19 14 10 12 14 15 16 14 23 48 49 39 31 34 37 34 36 47 72 69 70 69 62 44 48 57 46 39 44 61 63 45 58 63 81 82 95 83
96 84 60 42 42 74 81 50 68 72 37 27 22 18 15 11 20 28 22 18 16 21 34 42 37 27 38 47 40 60 73 73 70 66 58 42 33 44 38 44 48 55 50 59 66 73 88 89 88
92 94 67 54 14 71 74 55 70 64 56 24 31 28 22 23 18 14 34 39 24 27 26 20 20 42 28 34 42 44 58 72 71 66 66 71 52 40 39 54 62 58 66 66 76 84 93 90 88
72 68 56 57 18 40 48 43 40 48 62 38 30 31 45 41 36 26 12 25 41 49 44 40 37 30 25 43 31 31 43 45 47 47 52 63 50 51 47 59 61 62 71 70 73 82 82 90 96
61 54 62 69 24 16 48 31 28 22 41 47 20 24 38 55 40 42 36 19 13 10 9 31 43 54 43 28 22 38 46 35 38 43 42 44 44 46 42 55 68 73 74 77 64 68 87 91 90
58 56 58 60 30 32 41 50 49 36 22 50 28 23 35 48 47 44 42 48 50 53 48 24 8 7 27 42 42 40 30 26 32 42 40 41 38 39 40 48 53 67 68 68 73 55 60 71 81
48 52 51 40 14 17 33 43 47 53 32 42 54 31 30 31 38 37 33 30 30 36 38 52 60 29 12 13 17 39 52 52 51 40 30 48 45 41 41 41 46 53 58 55 54 54 65 60 71
50 49 38 16 8 21 32 42 62 46 50 54 57 57 45 35 33 36 35 28 27 26 24 23 28 60 42 35 21 22 18 36 48 46 40 27 43 48 49 50 51 51 60 57 51 47 50 52 68
9 19 28 24 24 30 31 34 46 40 46 69 84 22 77 49 53 44 52 50 35 26 24 20 24 28 28 40 44 47 44 27 26 48 52 30 30 33 32 32 35 41 47 51 63 61 61 56 61
26 33 35 35 32 39 30 34 39 40 52 55 83 70 82 84 70 58 71 68 62 36 33 32 26 30 31 32 31 34 44 59 47 32 57 67 55 47 50 32 21 32 33 35 33 47 63 70 68
27 26 33 32 37 45 27 27 46 51 55 68 58 24 36 97 50 63 71 69 62 49 42 36 33 31 32 31 32 34 36 31 34 45 47 35 37 55 42 52 50 32 31 36 40 29 49 66 67
10 30 34 27 36 41 34 30 41 37 38 36 32 12 16 97 62 74 38 74 64 59 33 31 38 39 31 29 27 28 27 25 25 35 22 24 50 42 28 50 76 77 36 42 44 48 49 66 68
16 24 30 22 32 37 33 41 41 39 35 37 35 13 6 43 50 14 49 58 72 66 64 36 35 45 42 39 29 21 25 41 27 24 22 18 24 53 41 37 48 32 37 42 42 44 39 49 48
6 15 25 33 35 37 44 45 46 42 42 32 14 6 4 4 29 58 53 59 76 93 70 65 58 52 50 56 49 53 43 41 38 33 30 23 22 46 47 52 29 26 28 40 44 40 40 36 52
7 13 23 33 34 35 45 52 50 52 32 22 13 5 6 5 15 42 48 94 48 95 77 90 64 68 70 63 63 65 67 42 39 43 37 31 24 33 49 46 54 36 42 51 48 50 38 48 46
26 44 44 44 52 35 41 43 45 26 32 29 5 5 6 6 5 46 62 47 44 47 36 96 61 79 74 75 74 63 51 61 58 46 47 52 43 58 94 94 90 86 61 58 56 63 63 48 40
Wind_Speed
18 7 21 22 20 15 16 13 11 13 13 15 9 14 11 6 13 14 11 11 13 11 11 11 10 10 9 11 7 13 24 29 22 21 21 20 20 17 16 16 15 14 15 15 16 17 16 15 14
19 18 22 18 19 16 19 13 11 9 17 19 11 13 13 14 13 11 10 11 12 11 9 8 7 8 8 9 11 21 24 27 23 19 19 19 18 16 16 15 14 13 14 14 15 15 14 12 12
10 14 20 15 21 15 17 11 10 10 15 13 11 12 13 14 13 10 11 12 9 10 8 6 3 3 8 10 16 18 21 20 19 19 18 17 16 16 15 15 14 12 11 13 13 12 11 11 10
25 20 19 18 14 18 12 11 7 12 11 11 11 12 13 14 17 13 11 13 13 11 11 11 8 6 11 15 12 13 17 19 18 16 16 15 16 17 15 14 14 15 9 12 13 11 9 9 8
27 29 26 16 15 14 13 13 11 4 15 9 12 11 11 15 18 16 14 13 12 10 12 14 15 18 20 18 14 14 17 18 17 16 14 16 16 16 14 14 14 15 15 13 12 11 9 9 8
32 28 26 23 15 20 14 13 10 14 11 8 13 11 10 14 18 17 14 14 14 13 14 15 18 21 22 20 16 15 16 16 14 15 14 15 15 16 14 13 14 14 15 15 12 12 9 7 7
25 29 15 20 16 18 13 14 11 12 12 10 13 12 9 12 16 17 14 15 15 14 15 17 17 18 17 16 15 16 16 14 14 13 13 14 14 14 13 13 14 14 14 13 11 9 9 7 7
37 30 13 18 17 20 23 11 8 14 14 12 11 12 10 9 13 16 16 14 15 14 15 18 20 22 19 18 17 17 14 13 12 13 13 14 13 13 11 11 12 13 13 12 9 7 6 5 5
27 16 15 16 12 24 20 12 13 14 16 14 11 12 12 10 10 13 17 16 16 16 15 16 16 18 17 17 16 14 12 11 12 11 12 12 13 13 11 11 11 9 9 9 9 8 5 3 2
23 15 19 18 21 16 19 18 17 13 17 17 13 11 12 11 11 11 12 16 16 17 16 15 14 14 14 13 12 12 11 10 10 10 10 11 12 11 10 11 11 9 7 6 7 10 8 8 6
22 21 16 19 19 14 12 18 16 15 14 16 15 12 12 11 11 10 8 12 14 14 15 15 16 14 13 12 11 11 10 8 7 8 11 11 11 10 9 11 11 10 12 8 7 8 7 11 11
25 30 24 16 12 21 17 18 16 15 19 13 11 13 14 13 9 9 11 9 10 10 12 13 12 12 10 11 9 10 8 7 6 8 10 9 8 8 10 8 8 11 12 10 9 9 7 11 14
17 13 23 31 18 21 15 20 20 24 19 14 11 9 9 9 10 10 7 9 8 8 10 11 8 9 7 7 8 5 6 5 4 8 8 7 5 6 8 8 9 10 11 11 10 7 8 9 15
15 24 31 27 14 9 17 23 16 19 18 16 15 14 12 9 7 6 10 8 9 6 8 8 7 6 6 5 6 4 2 4 3 4 5 7 6 4 6 6 8 7 8 9 9 9 7 8 9
19 31 26 20 20 24 22 26 19 19 18 15 13 13 14 15 14 9 6 6 7 7 6 5 4 4 4 5 4 4 4 4 3 4 5 5 4 4 3 6 7 5 7 7 9 10 11 12 11
14 20 20 21 15 20 23 23 21 20 16 16 14 12 13 14 16 16 12 6 6 4 4 3 5 3 2 2 4 3 3 3 2 2 3 4 5 5 6 7 5 6 9 9 10 9 9 10 12
14 1 14 24 20 19 16 17 21 16 16 18 18 18 17 16 15 15 16 13 7 5 4 3 2 3 3 2 1 2 2 3 2 1 3 4 5 5 5 5 6 8 8 11 14 14 13 11 10
10 13 11 20 19 14 14 18 19 18 18 16 15 15 17 18 16 13 13 13 13 11 8 3 2 1 1 1 1 2 1 3 5 5 5 5 5 5 5 6 7 8 10 12 13 14 14 12 9
16 8 11 16 17 16 13 21 29 23 19 16 11 13 14 17 17 14 14 12 12 12 12 10 9 5 3 3 3 3 3 3 5 5 7 8 7 7 7 8 9 10 12 13 13 15 18 19 17
8 8 4 14 13 14 9 14 17 24 19 20 15 9 12 14 15 17 18 16 14 14 12 11 11 11 8 7 6 6 6 7 8 7 6 7 8 9 9 10 10 10 11 13 14 14 15 14 15
3 3 15 15 7 5 8 8 13 18 16 19 20 9 9 11 13 16 19 19 19 16 14 13 10 8 9 10 11 10 10 10 10 12 10 8 8 8 9 10 11 12 13 13 14 14 14 13 12
3 14 12 11 2 7 9 6 4 19 10 15 19 12 13 10 10 12 14 17 15 14 15 15 15 9 10 10 10 11 12 12 12 11 12 11 9 8 8 7 10 11 12 13 13 13 14 14 12
11 19 19 18 13 11 4 10 13 12 7 12 13 24 17 5 7 6 8 11 14 14 16 13 13 14 13 12 12 13 13 13 13 11 9 10 9 11 11 12 11 13 14 15 14 14 14 15 13
21 14 12 12 7 9 3 10 14 13 6 9 7 16 26 18 8 5 4 9 12 9 15 18 16 16 13 13 16 17 17 15 15 12 11 11 13 14 16 15 14 14 14 15 15 16 15 14 14
16 12 12 15 6 5 6 12 9 8 10 8 16 18 25 22 22 10 9 8 13 5 7 14 16 15 14 12 14 16 18 19 18 17 13 13 12 17 19 17 20 17 15 13 14 15 17 16 15
14 10 6 10 10 10 17 14 12 18 20 25 24 24 18 12 28 16 11 12 11 10 4 9 11 15 15 16 16 16 19 23 23 18 17 17 20 21 18 20 20 23 20 17 14 15 16 16 16
15 12 12 5 3 13 10 11 17 22 20 21 28 30 12 18 27 28 24 22 10 14 12 7 9 13 14 13 17 20 21 23 25 25 22 20 22 21 24 20 21 24 23 22 21 17 17 16 17
7 8 19 11 3 7 9 14 18 20 23 24 24 19 17 12 17 29 28 29 16 21 17 14 10 11 18 16 20 21 23 26 30 28 28 28 27 25 24 22 27 27 24 25 24 21 20 18 18
12 15 13 8 5 2 7 11 15 17 22 21 22 17 17 14 15 27 33 32 26 32 23 17 8 15 18 22 24 27 25 30 34 34 27 29 30 29 26 28 28 29 25 24 23 24 22 21 20
15 12 13 8 10 12 15 18 16 25 29 20 19 22 16 13 13 23 33 32 32 39 31 19 15 17 26 27 27 28 31 37 37 38 34 30 27 26 24 32 36 27 23 21 22 21 21 22 24
Wind_Direction
60 73 110 94 98 98 104 96 81 76 85 74 48 62 68 95 96 85 90 96 92 96 96 96 96 93 90 94 87 98 111 122 116 129 124 122 122 117 110 102 99 98 97 97 97 97 101 106 109
63 55 79 81 84 106 91 95 86 73 73 80 55 65 79 79 87 93 98 86 86 88 83 91 101 103 106 96 94 109 98 114 120 124 123 120 113 108 102 100 99 98 97 95 97 95 101 99 102
46 50 79 65 69 72 77 84 69 66 71 71 79 76 79 83 98 100 88 81 78 72 69 67 59 130 142 125 94 92 104 117 122 123 116 108 107 100 92 89 84 83 93 93 95 93 103 104 99
101 74 73 73 86 92 107 88 62 36 68 63 74 71 75 78 87 92 81 75 69 74 57 57 62 88 143 146 123 108 110 115 116 116 111 111 100 89 89 86 83 74 101 98 93 91 103 94 89
71 57 54 72 86 93 79 88 70 82 73 71 70 76 77 78 78 75 87 84 81 77 66 71 74 90 119 127 127 114 115 118 119 117 111 98 93 94 89 81 75 73 75 89 84 74 71 70 66
56 54 37 60 60 81 94 81 59 62 61 72 67 58 64 74 80 81 79 82 78 82 73 81 86 100 115 127 130 121 122 123 120 111 102 94 93 89 85 68 68 62 61 64 65 61 70 62 57
73 69 23 52 52 53 43 80 80 71 61 68 72 59 57 68 78 79 80 86 85 82 80 74 89 97 107 117 122 123 123 122 113 102 97 90 85 84 82 76 64 59 57 58 61 65 64 63 44
59 46 23 51 55 48 44 61 60 74 55 62 74 71 65 64 76 83 86 84 89 84 84 85 70 107 99 98 102 111 112 107 98 92 90 84 80 79 79 78 71 63 59 54 53 57 57 54 41
49 46 36 43 50 57 56 55 57 59 73 72 84 82 79 72 67 80 88 86 83 87 85 84 88 96 94 97 101 100 96 96 91 87 85 84 82 77 74 72 68 57 59 55 41 43 36 20 3
14 50 44 47 45 54 49 58 78 73 64 58 62 74 81 75 77 75 78 88 95 93 86 87 86 88 89 90 95 99 95 88 85 87 81 70 71 73 70 68 70 57 56 53 39 43 38 5 316
39 41 42 52 52 48 59 65 53 65 83 71 64 62 75 80 86 81 80 89 88 80 97 97 93 90 91 91 87 87 86 79 72 79 76 71 69 61 62 63 64 74 68 56 30 45 34 26 4
42 45 47 66 67 89 43 58 59 58 63 70 73 70 65 66 71 91 106 91 99 105 106 104 104 107 94 84 85 80 88 79 78 76 79 72 62 72 64 60 55 60 80 53 24 28 70 33 20
7 59 44 43 44 75 68 59 50 53 57 60 64 72 74 82 86 89 78 95 91 102 99 97 97 98 107 98 82 81 83 79 81 79 74 81 61 69 71 51 69 76 52 42 42 36 34 50 39
52 26 42 54 40 45 91 71 51 55 54 58 62 63 63 62 69 92 99 94 94 81 79 86 103 114 110 104 107 116 134 84 89 72 68 82 90 74 63 38 53 59 37 32 36 44 44 45 30
4 24 32 24 32 30 45 56 35 33 33 36 52 58 59 58 53 52 76 106 103 99 101 110 106 95 90 84 95 95 88 109 95 48 38 55 83 65 51 55 51 37 34 23 29 19 12 5 2
351 3 15 13 46 40 27 38 38 19 24 37 41 47 50 50 51 46 46 71 88 109 92 96 94 119 100 78 95 148 157 107 40 39 27 23 17 29 28 22 9 1 359 4 8 3 355 350 1
343 320 17 336 9 48 31 28 34 22 13 27 38 36 43 40 40 45 44 44 53 81 93 51 76 88 109 217 205 144 200 262 272 309 315 346 352 344 353 5 348 342 341 338 342 337 329 334 340
26 52 332 328 5 18 22 10 25 34 23 12 35 32 36 41 37 32 44 45 42 41 41 54 30 21 316 70 306 257 213 275 278 281 289 300 306 309 319 327 324 327 327 330 336 334 337 316 312
166 78 322 312 10 24 15 23 22 21 39 13 26 35 34 34 39 43 39 29 29 36 37 40 38 30 9 345 328 330 319 270 260 269 274 281 288 290 300 304 310 320 321 324 331 332 325 335 343
200 91 262 289 334 59 27 351 360 4 23 34 7 40 31 39 42 56 49 43 34 29 24 27 29 36 39 30 7 331 308 298 293 280 265 266 269 277 281 285 291 301 303 311 316 319 323 326 332
133 356 271 283 295 41 7 347 348 343 349 20 13 29 42 52 51 52 47 47 45 42 42 38 24 14 24 28 23 12 353 335 311 284 275 272 276 281 286 290 295 297 301 297 302 306 314 319 325
75 238 286 296 267 98 42 16 35 332 325 343 344 11 31 27 50 45 45 42 39 36 33 28 31 20 12 5 355 358 357 355 336 304 258 257 263 276 286 284 283 285 288 291 293 295 301 307 314
106 98 78 86 92 67 128 277 302 317 302 312 323 333 332 359 7 37 32 44 29 36 28 22 12 24 16 7 4 355 341 338 350 343 303 280 291 295 285 281 279 283 284 282 284 289 289 294 300
125 91 72 61 43 36 180 271 295 315 302 304 314 333 312 316 317 289 327 327 335 20 26 25 23 16 24 27 29 26 17 350 339 349 340 327 301 301 291 287 278 271 276 284 283 278 278 283 288
135 159 56 12 255 80 223 267 283 298 268 262 259 302 275 246 268 255 283 280 317 322 17 16 12 13 359 358 4 5 6 6 7 360 347 336 305 284 290 294 288 285 280 276 280 269 265 269 275
181 97 11 355 348 189 230 266 277 298 306 303 331 342 347 295 275 288 283 215 274 284 340 352 354 357 358 345 337 338 343 344 338 345 341 339 316 302 292 287 296 281 279 279 273 271 265 266 268
174 173 148 124 16 176 209 255 260 275 318 313 330 344 322 245 264 296 299 305 272 277 272 324 325 333 342 339 340 341 342 345 343 333 330 319 322 311 292 284 282 275 281 276 270 263 260 262 268
173 156 154 147 63 251 236 255 275 302 311 312 328 335 342 315 256 280 297 276 277 265 251 270 289 312 323 318 323 323 333 334 338 332 322 319 319 316 320 289 276 279 280 278 270 268 264 260 259
143 158 181 165 218 146 268 233 258 287 292 309 326 340 336 353 270 269 273 239 315 203 242 234 250 313 310 307 312 308 314 326 329 329 325 317 314 313 303 297 264 263 264 267 272 269 268 265 263
183 205 153 225 235 216 252 283 291 292 296 313 327 339 344 335 330 271 281 293 305 303 304 270 324 308 297 301 311 319 317 319 322 322 314 312 311 307 294 290 268 248 263 267 264 262 264 264 263